User: anonymous   Login
Location: CNYAC Observatory
(43.2150°N, 74.9500°W)
Time: 20:27:18
(UTC-04:00)
Language:

Meteor 1-22 Rocket - Orbit

View from above orbital plane
View from above orbital plane
View from above satellite
View from above satellite

Ground track
Ground track

The orbit data is extracted from the following two-line orbital elements,

1  8294U 75087B   15238.88554432 +.00000014 +00000-0 +19150-6 0  9995
2  8294 081.2073 306.1464 0107204 103.9174 257.3948 14.08499106051892
Epoch (UTC): 26 August 2015 21:15:11
Eccentricity: 0.0107204
inclination: 81.2073°
perigee height: 787 km
apogee height: 942 km
right ascension of ascending node: 306.1464°
argument of perigee: 103.9174°
revolutions per day: 14.08499106
mean anomaly at epoch: 257.3948°
orbit number at epoch: 5189

The dashed part of the orbit path shows where the satellite is in the earth's shadow,  

DLR